Jackson, MI

1:11 AM EDT on August 24, 2019 (GMT -0400)
Jackson County-Reynolds

Weather History for KJXN - June, 2019

Change the Weather History Date:

Sunday, June 2, 2019

  Actual Average Record
Temperature  
Mean Temperature 58 °F 63 °F  
Max Temperature 69 °F 75 °F 86 °F (1948)
Min Temperature 47 °F 52 °F 34 °F (1966)
Degree Days  
Heating Degree Days 7 4  
Month to date heating degree days 7 8  
Since 1 June heating degree days 7 8  
Since 1 July heating degree days 6643 6610  
Cooling Degree Days 0 2  
Month to date cooling degree days 2 4  
Year to date cooling degree days 12 41  
Since 1 June cooling degree days 2 4  
Growing Degree Days 10 (Base 50)    
Moisture  
Dew Point 49 °F    
Average Humidity 65    
Maximum Humidity 100    
Minimum Humidity 30    
Precipitation  
Precipitation 0.00 in 0.10 in 1.71 in (2014)
Month to date precipitation 0.79 0.20  
Year to date precipitation 12.80 10.80  
Sea Level Pressure  
Sea Level Pressure 29.84 in    
Wind  
Wind Speed 7 mph (WNW)    
Max Wind Speed 17 mph    
Max Gust Speed 31 mph    
Visibility 8 miles    
Events      
T = Trace of Precipitation, MM = Missing Value Source: NWS Daily Summary

Daily Weather History Graph

Daily Weather History Graph

Search for Another Location

Airport or City:

Astronomy

Jun. 02, 2019 Rise Set
Actual Time 6:03 AM EDT 9:08 PM EDT
Civil Twilight 5:29 AM EDT 9:42 PM EDT
Nautical Twilight 4:46 AM EDT 10:25 PM EDT
Astronomical Twilight 3:55 AM EDT 11:17 PM EDT
Moon 5:45 AM EDT (6/2) 8:25 PM EDT (6/2)
Length of Visible Light 16h 12m
Length of Day
15h 04m
Waning Crescent, 1% of the Moon is Illuminated
Jun 2
Waning Crescent
Jun 3
New
Jun 10
First Quarter
Jun 17
Full
Jun 25
Last Quarter

Hourly Weather History & Observations

Time (EDT) Temp. Dew Point Humidity Pressure Visibility Wind Dir Wind Speed Gust Speed Precip Events Conditions
12:56 AM 59.0 °F 57.9 °F 96% 29.75 in 10.0 mi WSW 4.6 mph - N/A   Overcast
1:56 AM 57.9 °F 57.0 °F 97% 29.75 in 9.0 mi SW 6.9 mph - N/A   Partly Cloudy
2:56 AM 57.0 °F 55.9 °F 96% 29.74 in 7.0 mi WSW 5.8 mph - N/A   Clear
3:31 AM 57.0 °F 57.0 °F 100% 29.75 in 6.0 mi West 5.8 mph - N/A   Scattered Clouds
3:40 AM 57.9 °F 57.0 °F 97% 29.75 in 5.0 mi West 6.9 mph - N/A   Mostly Cloudy
3:56 AM 57.9 °F 57.0 °F 97% 29.75 in 5.0 mi West 5.8 mph - N/A   Overcast
4:35 AM 57.9 °F 57.9 °F 100% 29.76 in 1.8 mi WNW 4.6 mph - N/A   Overcast
4:56 AM 57.9 °F 57.9 °F 100% 29.75 in 1.2 mi NW 4.6 mph - N/A   Overcast
5:10 AM 57.9 °F 57.9 °F 100% 29.76 in 3.0 mi WNW 4.6 mph - N/A   Overcast
5:56 AM 59.0 °F 57.9 °F 96% 29.76 in 5.0 mi WNW 5.8 mph - N/A   Overcast
6:39 AM 59.0 °F 59.0 °F 100% 29.78 in 4.0 mi WNW 4.6 mph - N/A   Overcast
6:56 AM 57.9 °F 55.9 °F 93% 29.79 in 8.0 mi NNW 10.4 mph 23.0 mph N/A   Overcast
7:05 AM 57.0 °F 54.0 °F 89% 29.80 in 10.0 mi North 9.2 mph 18.4 mph N/A   Overcast
7:54 AM 57.2 °F 53.6 °F 88% 29.81 in 10.0 mi North 5.8 mph - N/A   Mostly Cloudy
7:56 AM 57.0 °F 54.0 °F 89% 29.81 in 10.0 mi North 4.6 mph - N/A   Overcast
8:56 AM 59.0 °F 52.0 °F 78% 29.84 in 10.0 mi North 9.2 mph - N/A   Mostly Cloudy
9:56 AM 61.0 °F 50.0 °F 67% 29.87 in 10.0 mi North 9.2 mph - N/A   Partly Cloudy
10:56 AM 63.0 °F 48.9 °F 60% 29.87 in 10.0 mi Calm Calm - N/A   Clear
11:56 AM 64.9 °F 48.9 °F 56% 29.88 in 10.0 mi Variable 5.8 mph - N/A   Clear
12:56 PM 66.0 °F 46.0 °F 48% 29.88 in 10.0 mi NW 3.5 mph 17.3 mph N/A   Clear
1:56 PM 68.0 °F 46.0 °F 45% 29.88 in 10.0 mi WNW 9.2 mph - N/A   Scattered Clouds
2:56 PM 66.9 °F 45.0 °F 45% 29.87 in 10.0 mi West 6.9 mph 18.4 mph N/A   Mostly Cloudy
3:56 PM 69.1 °F 46.0 °F 44% 29.87 in 10.0 mi West 11.5 mph 19.6 mph N/A   Partly Cloudy
4:56 PM 66.9 °F 44.1 °F 44% 29.88 in 10.0 mi West 10.4 mph 21.9 mph N/A   Partly Cloudy
5:56 PM 66.9 °F 39.9 °F 37% 29.89 in 10.0 mi West 15.0 mph 21.9 mph N/A   Partly Cloudy
6:56 PM 66.9 °F 36.0 °F 32% 29.90 in 10.0 mi WNW 10.4 mph 20.7 mph N/A   Partly Cloudy
7:56 PM 64.0 °F 32.0 °F 30% 29.93 in 10.0 mi WNW 13.8 mph 24.2 mph N/A   Clear
8:56 PM 61.0 °F 32.0 °F 34% 29.95 in 10.0 mi West 8.1 mph - N/A   Clear
9:56 PM 55.9 °F 35.1 °F 45% 29.96 in 10.0 mi WNW 3.5 mph - N/A   Clear
10:56 PM 50.0 °F 41.0 °F 71% 29.99 in 10.0 mi Calm Calm - N/A   Clear
11:56 PM 53.1 °F 37.0 °F 55% 30.00 in 10.0 mi NNW 6.9 mph - N/A   Clear